| time (UTC) | temp F | wind direction | speed knots | gust knots | rain 1hr in | rain 24hr in | rain mn in | humidity % | barometer mb |
| 20260506050856 | 47 | 328 | 0.0 | 0.9 | 0.00 | 0.00 | 0.00 | 69 | 1011.2 |
| 20260506044815 | 49 | 328 | 2.6 | 3.5 | 0.00 | 0.00 | 0.00 | 66 | 1011.5 |
| 20260506043815 | 48 | 333 | 3.5 | 5.2 | 0.00 | 0.00 | 0.00 | 69 | 1011.2 |
| 20260506042815 | 47 | 333 | 1.7 | 2.6 | 0.00 | 0.00 | 0.00 | 70 | 1011.2 |
| 20260506041815 | 47 | 333 | 1.7 | 2.6 | 0.00 | 0.00 | 0.00 | 68 | 1010.9 |
| 20260506040815 | 48 | 331 | 2.6 | 3.5 | 0.00 | 0.00 | 0.00 | 67 | 1011.1 |
| 20260506035815 | 49 | 331 | 2.6 | 3.5 | 0.00 | 0.00 | 0.00 | 66 | 1011.4 |
| 20260506034815 | 48 | 316 | 5.2 | 8.7 | 0.00 | 0.00 | 0.00 | 67 | 1011.4 |
| 20260506033815 | 49 | 333 | 1.7 | 3.5 | 0.00 | 0.00 | 0.00 | 66 | 1011.0 |
| 20260506032815 | 49 | 329 | 2.6 | 3.5 | 0.00 | 0.00 | 0.00 | 65 | 1011.0 |
| 20260506031835 | 50 | 117 | 2.6 | 3.5 | 0.00 | 0.00 | 0.00 | 64 | 1011.0 |
| 20260506030837 | 50 | 117 | 0.0 | 1.7 | 0.00 | 0.00 | 0.00 | 63 | 1011.1 |
| 20260506025817 | 51 | 117 | 0.9 | 1.7 | 0.00 | 0.00 | 0.00 | 62 | 1011.3 |
| 20260506024817 | 51 | 117 | 0.0 | 0.9 | 0.00 | 0.00 | 0.00 | 61 | 1011.3 |
| 20260506023817 | 51 | 117 | 1.7 | 2.6 | 0.00 | 0.00 | 0.00 | 59 | 1011.0 |
| 20260506022817 | 53 | 117 | 0.9 | 1.7 | 0.00 | 0.00 | 0.00 | 57 | 1011.7 |
| 20260506021817 | 54 | 117 | 2.6 | 3.5 | 0.00 | 0.00 | 0.00 | 56 | 1011.5 |
| 20260506020817 | 54 | 112 | 2.6 | 3.5 | 0.00 | 0.00 | 0.00 | 55 | 1011.4 |
| 20260506015837 | 54 | 110 | 2.6 | 5.2 | 0.00 | 0.00 | 0.00 | 54 | 1011.7 |
| 20260506014817 | 54 | 132 | 1.7 | 3.5 | 0.00 | 0.00 | 0.00 | 54 | 1011.7 |
| 20260506013817 | 55 | 112 | 3.5 | 6.1 | 0.00 | 0.00 | 0.00 | 53 | 1011.8 |
| 20260506012815 | 55 | 112 | 1.7 | 6.1 | 0.00 | 0.00 | 0.00 | 52 | 1011.6 |
| 20260506011816 | 55 | 100 | 3.5 | 6.1 | 0.00 | 0.00 | 0.00 | 52 | 1011.6 |
| 20260506010817 | 56 | 112 | 2.6 | 4.3 | 0.00 | 0.00 | 0.00 | 52 | 1011.8 |
| 20260506005816 | 56 | 100 | 4.3 | 7.8 | 0.00 | 0.00 | 0.00 | 52 | 1012.0 |
| 20260506004816 | 56 | 113 | 5.2 | 7.0 | 0.00 | 0.00 | 0.00 | 52 | 1011.8 |
| 20260506003858 | 56 | 83 | 1.7 | 5.2 | 0.00 | 0.00 | 0.00 | 53 | 1011.8 |
| 20260506002816 | 56 | 90 | 3.5 | 7.0 | 0.00 | 0.00 | 0.00 | 53 | 1011.7 |
| 20260506001817 | 56 | 86 | 3.5 | 6.1 | 0.00 | 0.00 | 0.00 | 52 | 1011.9 |
| 20260506000816 | 56 | 132 | 2.6 | 5.2 | 0.00 | 0.00 | 0.00 | 53 | 1011.6 |
| 20260505235816 | 55 | 113 | 5.2 | 8.7 | 0.00 | 0.00 | 0.00 | 53 | 1011.4 |
| 20260505234817 | 55 | 116 | 3.5 | 6.1 | 0.00 | 0.00 | 0.00 | 53 | 1011.5 |
| 20260505233816 | 55 | 134 | 1.7 | 5.2 | 0.00 | 0.00 | 0.00 | 56 | 1011.6 |
| 20260505232816 | 54 | 90 | 6.1 | 7.0 | 0.00 | 0.00 | 0.00 | 57 | 1011.6 |
| 20260505231816 | 53 | 88 | 6.1 | 7.8 | 0.00 | 0.00 | 0.00 | 58 | 1011.4 |
| 20260505230816 | 53 | 69 | 4.3 | 6.1 | 0.00 | 0.00 | 0.00 | 58 | 1011.5 |
| 20260505225817 | 53 | 83 | 2.6 | 6.1 | 0.00 | 0.00 | 0.00 | 58 | 1011.6 |
| 20260505224816 | 52 | 87 | 3.5 | 6.1 | 0.00 | 0.00 | 0.00 | 59 | 1011.6 |
| 20260505223816 | 52 | 80 | 2.6 | 7.0 | 0.00 | 0.00 | 0.00 | 60 | 1011.5 |
| 20260505222816 | 53 | 90 | 4.3 | 7.8 | 0.00 | 0.00 | 0.00 | 58 | 1012.0 |
| 20260505221816 | 53 | 70 | 4.3 | 7.0 | 0.00 | 0.00 | 0.00 | 54 | 1012.0 |
| 20260505220816 | 53 | 108 | 3.5 | 5.2 | 0.00 | 0.00 | 0.00 | 55 | 1012.0 |
| 20260505215816 | 53 | 91 | 4.3 | 7.8 | 0.00 | 0.00 | 0.00 | 54 | 1011.6 |
| 20260505214816 | 53 | 85 | 3.5 | 7.0 | 0.00 | 0.00 | 0.00 | 54 | 1011.6 |
| 20260505213816 | 53 | 131 | 2.6 | 6.1 | 0.00 | 0.00 | 0.00 | 55 | 1011.5 |
| 20260505212836 | 53 | 145 | 2.6 | 9.6 | 0.00 | 0.00 | 0.00 | 56 | 1012.0 |
| 20260505211816 | 53 | 77 | 5.2 | 7.8 | 0.00 | 0.00 | 0.00 | 60 | 1012.1 |
| 20260505210816 | 53 | 78 | 3.5 | 6.1 | 0.00 | 0.00 | 0.00 | 58 | 1012.0 |
| 20260505205816 | 53 | 113 | 3.5 | 6.1 | 0.00 | 0.00 | 0.00 | 58 | 1012.0 |
| 20260505204816 | 52 | 110 | 1.7 | 4.3 | 0.00 | 0.00 | 0.00 | 59 | 1011.7 |
| 20260505203836 | 53 | 125 | 5.2 | 9.6 | 0.00 | 0.00 | 0.00 | 58 | 1011.8 |
| 20260505202816 | 53 | 91 | 2.6 | 7.8 | 0.00 | 0.00 | 0.00 | 59 | 1011.7 |
| 20260505201816 | 52 | 100 | 4.3 | 7.8 | 0.00 | 0.00 | 0.00 | 58 | 1011.7 |
| 20260505200836 | 52 | 109 | 3.5 | 6.1 | 0.00 | 0.00 | 0.00 | 60 | 1011.7 |
| 20260505195816 | 52 | 123 | 4.3 | 8.7 | 0.00 | 0.00 | 0.00 | 61 | 1011.9 |
| 20260505194816 | 51 | 142 | 6.1 | 8.7 | 0.00 | 0.00 | 0.00 | 62 | 1011.7 |
| 20260505193816 | 51 | 108 | 7.8 | 11.3 | 0.00 | 0.00 | 0.00 | 63 | 1011.7 |
| 20260505192816 | 51 | 106 | 6.1 | 9.6 | 0.00 | 0.00 | 0.00 | 62 | 1011.5 |
| 20260505191816 | 51 | 119 | 3.5 | 7.8 | 0.00 | 0.00 | 0.00 | 64 | 1011.7 |
| 20260505190816 | 51 | 144 | 6.1 | 9.6 | 0.00 | 0.00 | 0.00 | 65 | 1011.5 |
| 20260505185816 | 50 | 113 | 6.1 | 11.3 | 0.00 | 0.00 | 0.00 | 66 | 1011.2 |
| 20260505184816 | 50 | 120 | 7.8 | 9.6 | 0.00 | 0.00 | 0.00 | 67 | 1011.3 |
| 20260505183816 | 50 | 109 | 6.1 | 9.6 | 0.00 | 0.00 | 0.00 | 69 | 1011.3 |
| 20260505182816 | 50 | 159 | 7.8 | 10.4 | 0.00 | 0.00 | 0.00 | 69 | 1011.2 |
| 20260505181816 | 49 | 146 | 3.5 | 7.0 | 0.00 | 0.00 | 0.00 | 69 | 1011.2 |
| 20260505180836 | 49 | 107 | 1.7 | 8.7 | 0.00 | 0.00 | 0.00 | 69 | 1011.2 |
| 20260505175836 | 49 | 118 | 3.5 | 7.8 | 0.00 | 0.00 | 0.00 | 70 | 1011.3 |
| 20260505174816 | 49 | 125 | 7.0 | 10.4 | 0.00 | 0.00 | 0.00 | 71 | 1011.3 |
| 20260505173816 | 49 | 133 | 6.1 | 10.4 | 0.00 | 0.00 | 0.00 | 72 | 1011.3 |
| 20260505172816 | 48 | 152 | 8.7 | 12.2 | 0.00 | 0.00 | 0.00 | 73 | 1011.2 |
| 20260505171816 | 48 | 125 | 3.5 | 9.6 | 0.00 | 0.00 | 0.00 | 74 | 1011.2 |
| 20260505170816 | 48 | 122 | 3.5 | 7.8 | 0.00 | 0.00 | 0.00 | 76 | 1011.3 |
| 20260505165816 | 47 | 117 | 3.5 | 7.0 | 0.00 | 0.00 | 0.00 | 75 | 1011.2 |
| 20260505164816 | 48 | 91 | 4.3 | 7.0 | 0.00 | 0.00 | 0.00 | 75 | 1011.5 |
| 20260505163816 | 48 | 98 | 7.0 | 8.7 | 0.00 | 0.00 | 0.00 | 75 | 1011.5 |
| 20260505162836 | 47 | 84 | 7.8 | 11.3 | 0.00 | 0.00 | 0.00 | 75 | 1011.4 |
| 20260505161836 | 48 | 128 | 2.6 | 7.8 | 0.00 | 0.00 | 0.00 | 76 | 1011.3 |
| 20260505160815 | 48 | 113 | 3.5 | 10.4 | 0.00 | 0.00 | 0.00 | 78 | 1011.3 |
| 20260505152815 | 48 | 105 | 3.5 | 7.8 | 0.00 | 0.00 | 0.00 | 75 | 1011.4 |
| 20260505151815 | 48 | 110 | 7.8 | 12.2 | 0.00 | 0.00 | 0.00 | 74 | 1011.4 |
| 20260505150816 | 48 | 97 | 6.1 | 7.8 | 0.00 | 0.00 | 0.00 | 73 | 1011.3 |
| 20260505124835 | 52 | 250 | 3.5 | 6.1 | 0.00 | 0.00 | 0.00 | 73 | 1011.3 |
| 20260505123815 | 52 | 244 | 4.3 | 6.1 | 0.00 | 0.00 | 0.00 | 75 | 1011.1 |
| 20260505122816 | 52 | 215 | 0.9 | 1.7 | 0.00 | 0.00 | 0.00 | 75 | 1011.1 |
| 20260505121815 | 52 | 215 | 0.0 | 0.9 | 0.00 | 0.00 | 0.00 | 75 | 1011.1 |
| 20260505120815 | 52 | 215 | 0.9 | 1.7 | 0.00 | 0.00 | 0.00 | 74 | 1011.1 |
| 20260505115815 | 52 | 182 | 0.9 | 2.6 | 0.00 | 0.00 | 0.00 | 74 | 1011.3 |
| 20260505114815 | 52 | 154 | 6.1 | 10.4 | 0.00 | 0.00 | 0.00 | 73 | 1011.3 |
| 20260505113815 | 52 | 141 | 1.7 | 4.3 | 0.00 | 0.00 | 0.00 | 72 | 1011.1 |
| 20260505112815 | 52 | 263 | 2.6 | 5.2 | 0.00 | 0.00 | 0.00 | 72 | 1010.9 |
| 20260505111837 | 52 | 269 | 0.9 | 2.6 | 0.00 | 0.00 | 0.00 | 71 | 1010.8 |
| 20260505110837 | 52 | 269 | 0.9 | 0.9 | 0.00 | 0.00 | 0.00 | 70 | 1010.7 |
| 20260505101817 | 53 | 269 | 0.0 | 1.7 | 0.00 | 0.00 | 0.00 | 65 | 1011.1 |
| 20260505100817 | 53 | 269 | 0.9 | 3.5 | 0.00 | 0.00 | 0.00 | 64 | 1011.1 |
| 20260505095817 | 53 | 245 | 3.5 | 6.1 | 0.00 | 0.00 | 0.00 | 63 | 1010.8 |
| 20260505094817 | 52 | 148 | 0.9 | 1.7 | 0.00 | 0.00 | 0.00 | 67 | 1010.9 |
| 20260505093817 | 52 | 148 | 1.7 | 2.6 | 0.00 | 0.00 | 0.00 | 68 | 1010.7 |
| 20260505092815 | 52 | 148 | 0.0 | 0.9 | 0.00 | 0.00 | 0.00 | 69 | 1010.7 |
| 20260505091817 | 52 | 0.0 | 0.0 | 0.00 | 0.00 | 0.00 | 70 | 1010.7 | |
| 20260505090816 | 53 | 0.0 | 0.0 | 0.00 | 0.00 | 0.00 | 70 | 1010.8 | |
| 20260505085816 | 53 | 148 | 0.0 | 3.5 | 0.00 | 0.00 | 0.00 | 70 | 1011.5 |
| 20260505084817 | 53 | 144 | 1.7 | 6.1 | 0.00 | 0.00 | 0.00 | 71 | 1011.6 |
| 20260505083817 | 53 | 124 | 1.7 | 3.5 | 0.00 | 0.00 | 0.00 | 71 | 1011.6 |
| 20260505082817 | 53 | 139 | 0.9 | 3.5 | 0.00 | 0.00 | 0.00 | 71 | 1011.7 |
| 20260505081816 | 53 | 134 | 1.7 | 3.5 | 0.00 | 0.00 | 0.00 | 70 | 1011.4 |
| 20260505080817 | 53 | 125 | 1.7 | 2.6 | 0.00 | 0.00 | 0.00 | 70 | 1011.5 |
| 20260505075817 | 53 | 134 | 0.9 | 1.7 | 0.00 | 0.00 | 0.00 | 70 | 1012.1 |
| 20260505074816 | 54 | 160 | 2.6 | 4.3 | 0.00 | 0.00 | 0.00 | 69 | 1012.1 |
| 20260505073817 | 54 | 129 | 2.6 | 6.1 | 0.00 | 0.00 | 0.00 | 68 | 1012.3 |
| 20260505072818 | 54 | 156 | 4.3 | 6.1 | 0.00 | 0.00 | 0.00 | 64 | 1012.8 |
| 20260505071816 | 54 | 175 | 1.7 | 3.5 | 0.00 | 0.00 | 0.00 | 63 | 1012.4 |
| 20260505070816 | 53 | 142 | 4.3 | 8.7 | 0.00 | 0.00 | 0.00 | 65 | 1012.5 |
| 20260505065817 | 53 | 164 | 0.9 | 3.5 | 0.00 | 0.00 | 0.00 | 66 | 1012.5 |
| 20260505064816 | 53 | 239 | 0.9 | 1.7 | 0.00 | 0.00 | 0.00 | 66 | 1012.4 |
| 20260505063816 | 53 | 199 | 3.5 | 5.2 | 0.00 | 0.00 | 0.00 | 65 | 1012.4 |
| 20260505062816 | 53 | 219 | 1.7 | 8.7 | 0.00 | 0.00 | 0.00 | 64 | 1011.9 |
| 20260505061816 | 53 | 190 | 4.3 | 9.6 | 0.00 | 0.00 | 0.00 | 64 | 1012.0 |
| 20260505060836 | 53 | 194 | 7.0 | 12.2 | 0.00 | 0.00 | 0.00 | 64 | 1012.1 |
| 20260505055815 | 53 | 235 | 8.7 | 12.2 | 0.00 | 0.00 | 0.00 | 65 | 1011.7 |
| 20260505054816 | 53 | 200 | 9.6 | 15.6 | 0.00 | 0.00 | 0.00 | 67 | 1011.6 |